DLH05M EDDF-LOWS

Flight info

Callsign DLH05M
Flight time 0h 38m
Altitude 29000
Route CINDY8S/18 CINDY Z74 HAREM DCT ASLEP DCT TAKUT DCT DINKU L603 OLETU T702 BADIT BADIT2R
Aircraft A319/M-SDE3FGHIRWY/LB1

Departure

Time 2026-05-07 19:04
Airport Frankfurt Main Airport (EDDF)

Arrival

Time 2026-05-07 19:42
Airport Salzburg Airport (LOWS)
Time Latitude Longitude Altitude Speed Heading
2026-05-07 18:41 50.04903 8.59109 369 ft 0 kts 339°
2026-05-07 18:50 50.04899 8.59111 370 ft 3 kts 339°
2026-05-07 18:50 50.04874 8.59125 370 ft 4 kts 339°
2026-05-07 18:50 50.04849 8.59140 368 ft 4 kts 339°
2026-05-07 18:50 50.04828 8.59152 368 ft 0 kts 339°
2026-05-07 18:52 50.04827 8.59140 368 ft 2 kts 254°
2026-05-07 18:53 50.04786 8.59026 369 ft 16 kts 249°
2026-05-07 18:53 50.04745 8.58870 371 ft 16 kts 255°
2026-05-07 18:53 50.04711 8.58707 371 ft 16 kts 245°
2026-05-07 18:53 50.04667 8.58544 371 ft 16 kts 249°
2026-05-07 18:54 50.04627 8.58375 371 ft 17 kts 250°
2026-05-07 18:54 50.04584 8.58194 369 ft 19 kts 250°
2026-05-07 18:54 50.04537 8.57991 365 ft 18 kts 250°
2026-05-07 18:54 50.04492 8.57810 366 ft 18 kts 250°
2026-05-07 18:55 50.04449 8.57623 368 ft 19 kts 250°
2026-05-07 18:55 50.04401 8.57423 361 ft 21 kts 249°
2026-05-07 18:55 50.04365 8.57276 364 ft 12 kts 250°
2026-05-07 18:55 50.04328 8.57123 363 ft 17 kts 249°
2026-05-07 18:56 50.04286 8.56945 361 ft 18 kts 250°
2026-05-07 18:56 50.04242 8.56759 363 ft 19 kts 250°
2026-05-07 18:56 50.04193 8.56552 360 ft 21 kts 250°
2026-05-07 18:56 50.04149 8.56369 359 ft 14 kts 249°
2026-05-07 18:57 50.04114 8.56221 354 ft 15 kts 250°
2026-05-07 18:57 50.04077 8.56063 357 ft 16 kts 249°
2026-05-07 18:57 50.04035 8.55894 353 ft 17 kts 250°
2026-05-07 18:57 50.03997 8.55730 349 ft 15 kts 251°
2026-05-07 18:58 50.03959 8.55576 352 ft 16 kts 249°
2026-05-07 18:58 50.03922 8.55418 349 ft 16 kts 250°
2026-05-07 18:58 50.03884 8.55254 350 ft 16 kts 250°
2026-05-07 18:58 50.03843 8.55084 351 ft 17 kts 249°
2026-05-07 18:59 50.03800 8.54903 350 ft 18 kts 250°
2026-05-07 18:59 50.03764 8.54748 351 ft 15 kts 250°
2026-05-07 18:59 50.03723 8.54589 345 ft 17 kts 248°
2026-05-07 18:59 50.03683 8.54416 346 ft 11 kts 250°
2026-05-07 19:00 50.03657 8.54305 347 ft 11 kts 250°
2026-05-07 19:00 50.03628 8.54186 344 ft 13 kts 248°
2026-05-07 19:00 50.03590 8.54037 350 ft 16 kts 249°
2026-05-07 19:00 50.03549 8.53870 338 ft 17 kts 249°
2026-05-07 19:01 50.03505 8.53690 336 ft 18 kts 249°
2026-05-07 19:01 50.03460 8.53499 336 ft 19 kts 250°
2026-05-07 19:01 50.03414 8.53299 335 ft 20 kts 251°
2026-05-07 19:01 50.03365 8.53089 335 ft 21 kts 249°
2026-05-07 19:02 50.03311 8.52868 333 ft 22 kts 249°
2026-05-07 19:02 50.03248 8.52648 333 ft 22 kts 229°
2026-05-07 19:02 50.03110 8.52592 334 ft 21 kts 181°
2026-05-07 19:02 50.03095 8.52591 335 ft 0 kts 181°
2026-05-07 19:03 50.03094 8.52591 335 ft 0 kts 181°
2026-05-07 19:03 50.03073 8.52591 335 ft 18 kts 179°
2026-05-07 19:03 50.02649 8.52605 335 ft 100 kts 180°
2026-05-07 19:03 50.01739 8.52613 330 ft 159 kts 179°
2026-05-07 19:04 50.00521 8.52602 675 ft 181 kts 179°
2026-05-07 19:04 49.99258 8.52562 1352 ft 181 kts 180°
2026-05-07 19:04 49.97974 8.52578 1850 ft 193 kts 174°
2026-05-07 19:04 49.96666 8.53345 2085 ft 214 kts 142°
2026-05-07 19:05 49.95712 8.55213 2566 ft 229 kts 117°
2026-05-07 19:05 49.94944 8.57396 3491 ft 236 kts 117°
2026-05-07 19:05 49.94190 8.59826 3882 ft 265 kts 105°
2026-05-07 19:05 49.93957 8.62643 3985 ft 267 kts 92°
2026-05-07 19:06 49.93847 8.65512 4005 ft 265 kts 93°
2026-05-07 19:06 49.92441 8.70732 4010 ft 268 kts 131°
2026-05-07 19:06 49.91008 8.72582 4132 ft 272 kts 145°
2026-05-07 19:07 49.89511 8.74381 5268 ft 274 kts 134°
2026-05-07 19:07 49.88399 8.76806 6567 ft 277 kts 121°
2026-05-07 19:07 49.87385 8.79382 7776 ft 282 kts 121°
2026-05-07 19:07 49.86360 8.82014 8987 ft 288 kts 121°
2026-05-07 19:08 49.85318 8.84696 10158 ft 293 kts 121°
2026-05-07 19:08 49.84222 8.87515 10814 ft 318 kts 121°
2026-05-07 19:08 49.83034 8.90557 11370 ft 342 kts 122°
2026-05-07 19:08 49.81775 8.93771 12198 ft 354 kts 122°
2026-05-07 19:09 49.80484 8.97060 13189 ft 360 kts 122°
2026-05-07 19:09 49.79175 9.00401 14173 ft 366 kts 122°
2026-05-07 19:09 49.77844 9.03797 15079 ft 372 kts 122°
2026-05-07 19:09 49.76492 9.07239 15931 ft 377 kts 122°
2026-05-07 19:10 49.75118 9.10724 16737 ft 382 kts 122°
2026-05-07 19:10 49.73722 9.14260 17500 ft 387 kts 122°
2026-05-07 19:10 49.72311 9.17834 18236 ft 392 kts 122°
2026-05-07 19:10 49.70877 9.21459 18876 ft 396 kts 122°
2026-05-07 19:11 49.69431 9.25110 19518 ft 400 kts 122°
2026-05-07 19:11 49.67973 9.28785 20168 ft 403 kts 122°
2026-05-07 19:11 49.66499 9.32498 20813 ft 407 kts 122°
2026-05-07 19:11 49.65013 9.36233 21455 ft 410 kts 122°
2026-05-07 19:12 49.63510 9.40009 22069 ft 414 kts 122°
2026-05-07 19:12 49.61999 9.43800 22659 ft 417 kts 122°
2026-05-07 19:12 49.60475 9.47620 23253 ft 420 kts 122°
2026-05-07 19:12 49.58957 9.51421 23785 ft 423 kts 122°
2026-05-07 19:13 49.57407 9.55297 24242 ft 427 kts 122°
2026-05-07 19:13 49.55843 9.59199 24696 ft 430 kts 122°
2026-05-07 19:13 49.54267 9.63123 25152 ft 433 kts 122°
2026-05-07 19:13 49.52679 9.67070 25601 ft 435 kts 122°
2026-05-07 19:14 49.51076 9.71048 26048 ft 438 kts 122°
2026-05-07 19:14 49.49465 9.75043 26501 ft 441 kts 122°
2026-05-07 19:14 49.47845 9.79062 26946 ft 443 kts 122°
2026-05-07 19:14 49.46213 9.83104 27382 ft 446 kts 122°
2026-05-07 19:15 49.44567 9.87169 27814 ft 449 kts 122°
2026-05-07 19:15 49.42906 9.91258 28249 ft 452 kts 122°
2026-05-07 19:15 49.41236 9.95353 28660 ft 454 kts 122°
2026-05-07 19:15 49.39550 9.99481 28992 ft 459 kts 122°
2026-05-07 19:16 49.36090 10.07944 29058 ft 476 kts 123°
2026-05-07 19:16 49.32558 10.16578 29064 ft 479 kts 123°
2026-05-07 19:17 49.29012 10.25225 29086 ft 479 kts 123°
2026-05-07 19:17 49.25455 10.33853 29093 ft 479 kts 123°
2026-05-07 19:18 49.21313 10.41760 29096 ft 477 kts 137°
2026-05-07 19:18 49.16541 10.48827 29096 ft 477 kts 137°
2026-05-07 19:19 49.11773 10.55884 29094 ft 477 kts 137°
2026-05-07 19:19 49.07015 10.62934 29095 ft 477 kts 137°
2026-05-07 19:20 49.02283 10.69941 29095 ft 477 kts 137°
2026-05-07 19:20 48.97510 10.76957 29097 ft 477 kts 137°
2026-05-07 19:21 48.95130 10.80437 28595 ft 472 kts 137°
2026-05-07 19:21 48.92773 10.83884 27734 ft 467 kts 137°
2026-05-07 19:21 48.90443 10.87291 26893 ft 463 kts 138°
2026-05-07 19:21 48.88134 10.90665 26092 ft 458 kts 138°
2026-05-07 19:22 48.85845 10.94016 25332 ft 455 kts 138°
2026-05-07 19:22 48.83579 10.97337 24599 ft 451 kts 138°
2026-05-07 19:22 48.81333 11.00626 23891 ft 447 kts 138°
2026-05-07 19:22 48.79097 11.03889 23121 ft 444 kts 138°
2026-05-07 19:23 48.76876 11.07119 22369 ft 440 kts 138°
2026-05-07 19:23 48.74674 11.10316 21669 ft 436 kts 138°
2026-05-07 19:23 48.72490 11.13473 21007 ft 432 kts 139°
2026-05-07 19:23 48.70319 11.16597 20385 ft 429 kts 139°
2026-05-07 19:24 48.68155 11.19707 20097 ft 428 kts 139°
2026-05-07 19:24 48.65996 11.22810 20035 ft 428 kts 139°
2026-05-07 19:24 48.63935 11.26060 20058 ft 430 kts 131°
2026-05-07 19:24 48.62120 11.29668 20062 ft 431 kts 128°
2026-05-07 19:25 48.60930 11.32082 20056 ft 431 kts 128°
2026-05-07 19:25 48.60429 11.33094 20067 ft 431 kts 128°
2026-05-07 19:25 48.58628 11.36718 20056 ft 431 kts 128°
2026-05-07 19:25 48.56827 11.40333 20061 ft 431 kts 128°
2026-05-07 19:26 48.55019 11.43962 20068 ft 431 kts 128°
2026-05-07 19:26 48.53210 11.47584 20066 ft 432 kts 129°
2026-05-07 19:26 48.51400 11.51192 20057 ft 431 kts 129°
2026-05-07 19:26 48.49624 11.54732 19594 ft 427 kts 129°
2026-05-07 19:27 48.47872 11.58336 19021 ft 425 kts 125°
2026-05-07 19:27 48.46419 11.62213 18488 ft 424 kts 116°
2026-05-07 19:27 48.45329 11.66331 18132 ft 423 kts 110°
2026-05-07 19:27 48.44339 11.70507 18068 ft 423 kts 110°
2026-05-07 19:28 48.43332 11.74681 18086 ft 424 kts 111°
2026-05-07 19:28 48.42319 11.78842 18083 ft 424 kts 111°
2026-05-07 19:28 48.41302 11.83009 18084 ft 424 kts 111°
2026-05-07 19:28 48.40285 11.87176 18081 ft 424 kts 111°
2026-05-07 19:29 48.39271 11.91337 18084 ft 424 kts 111°
2026-05-07 19:29 48.38258 11.95497 18048 ft 423 kts 111°
2026-05-07 19:29 48.37590 11.98243 17709 ft 420 kts 111°
2026-05-07 19:29 48.36257 12.03726 16946 ft 415 kts 111°
2026-05-07 19:30 48.35601 12.06420 16587 ft 413 kts 111°
2026-05-07 19:30 48.34614 12.10457 16050 ft 409 kts 111°
2026-05-07 19:30 48.33633 12.14446 15518 ft 405 kts 111°
2026-05-07 19:30 48.32659 12.18397 14986 ft 402 kts 111°
2026-05-07 19:31 48.31694 12.22312 14459 ft 398 kts 111°
2026-05-07 19:31 48.30733 12.26218 13659 ft 401 kts 111°
2026-05-07 19:31 48.29765 12.30142 12927 ft 400 kts 111°
2026-05-07 19:31 48.28804 12.34038 12263 ft 396 kts 111°
2026-05-07 19:32 48.27850 12.37896 11601 ft 392 kts 111°
2026-05-07 19:32 48.26902 12.41716 10938 ft 389 kts 112°
2026-05-07 19:32 48.25960 12.45489 10279 ft 385 kts 112°
2026-05-07 19:32 48.25022 12.49234 9586 ft 381 kts 112°
2026-05-07 19:33 48.24096 12.52928 8896 ft 376 kts 111°
2026-05-07 19:33 48.22991 12.56436 8219 ft 369 kts 124°
2026-05-07 19:33 48.21413 12.59424 7550 ft 363 kts 131°
2026-05-07 19:33 48.19804 12.62314 6878 ft 358 kts 131°
2026-05-07 19:34 48.18219 12.65159 6197 ft 354 kts 131°
2026-05-07 19:34 48.16649 12.67971 5513 ft 349 kts 130°
2026-05-07 19:34 48.15102 12.70738 4927 ft 344 kts 130°
2026-05-07 19:34 48.13567 12.73479 5008 ft 345 kts 130°
2026-05-07 19:35 48.12018 12.76241 5025 ft 346 kts 130°
2026-05-07 19:35 48.10467 12.79006 5025 ft 347 kts 130°
2026-05-07 19:35 48.08922 12.81769 5028 ft 347 kts 130°
2026-05-07 19:35 48.07372 12.84534 5025 ft 346 kts 130°
2026-05-07 19:36 48.05818 12.87292 5027 ft 347 kts 130°
2026-05-07 19:36 48.04266 12.90044 5026 ft 346 kts 131°
2026-05-07 19:36 48.02712 12.92793 5029 ft 346 kts 131°
2026-05-07 19:36 48.01157 12.95542 5030 ft 347 kts 131°
2026-05-07 19:37 47.99605 12.98279 5029 ft 339 kts 131°
2026-05-07 19:37 47.97915 13.00520 5030 ft 315 kts 148°
2026-05-07 19:37 47.95973 13.01858 5032 ft 299 kts 165°
2026-05-07 19:37 47.94020 13.02505 5032 ft 277 kts 169°
2026-05-07 19:38 47.92160 13.03077 5034 ft 271 kts 169°
2026-05-07 19:38 47.90346 13.03631 5036 ft 270 kts 169°
2026-05-07 19:38 47.88529 13.04189 5035 ft 259 kts 169°
2026-05-07 19:38 47.86819 13.04715 4889 ft 247 kts 169°
2026-05-07 19:39 47.85138 13.05229 4525 ft 245 kts 169°
2026-05-07 19:39 47.83489 13.05730 4188 ft 237 kts 169°
2026-05-07 19:39 47.81912 13.06205 3865 ft 226 kts 169°
2026-05-07 19:39 47.80400 13.06656 3533 ft 217 kts 170°
2026-05-07 19:40 47.78933 13.07022 3227 ft 208 kts 175°
2026-05-07 19:40 47.77569 13.06964 3131 ft 187 kts 194°
2026-05-07 19:40 47.76536 13.06058 3024 ft 160 kts 227°
2026-05-07 19:40 47.76083 13.04607 2683 ft 158 kts 263°
2026-05-07 19:41 47.76276 13.03075 2345 ft 148 kts 300°
2026-05-07 19:41 47.76986 13.02010 1967 ft 149 kts 326°
2026-05-07 19:41 47.77912 13.01306 1620 ft 150 kts 333°
2026-05-07 19:41 47.78853 13.00702 1432 ft 140 kts 335°
2026-05-07 19:42 47.79628 13.00203 1419 ft 95 kts 336°
2026-05-07 19:42 47.80114 12.99898 1415 ft 49 kts 337°
2026-05-07 19:42 47.80269 12.99721 1416 ft 13 kts 258°
2026-05-07 19:42 47.80224 12.99596 1418 ft 14 kts 208°
2026-05-07 19:43 47.80126 12.99624 1417 ft 15 kts 157°
2026-05-07 19:43 47.80028 12.99688 1415 ft 16 kts 157°
2026-05-07 19:43 47.79928 12.99757 1415 ft 16 kts 160°
2026-05-07 19:43 47.79821 12.99814 1415 ft 17 kts 160°
2026-05-07 19:44 47.79713 12.99880 1415 ft 17 kts 155°
2026-05-07 19:44 47.79599 12.99960 1415 ft 18 kts 154°
2026-05-07 19:44 47.79483 13.00042 1415 ft 19 kts 154°
2026-05-07 19:44 47.79362 13.00069 1415 ft 17 kts 220°
2026-05-07 19:45 47.79311 12.99909 1415 ft 12 kts 256°
2026-05-07 19:45 47.79323 12.99808 1418 ft 8 kts 226°
2026-05-07 19:45 47.79311 12.99777 1416 ft 0 kts 245°